Regional Weather Roundup
Issued by NWS

Home | Current Version | Previous Version | Text Only | Print | Product List | Glossary Off
Versions: 1 2 3 4 5 6 7 8 9 10 11 12 13 14 15 16 17 18 19 20 21 22 23 24 25 26 27 28 29 30 31 32 33 34 35 36 37 38 39 40 41 42 43 44 45 46 47 48 49 50

000
ASUS43 KLOT 290358
RWRIL

ILLINOIS REGIONAL WEATHER ROUNDUP
NATIONAL WEATHER SERVICE CHICAGO/ROMEOVILLE IL
1100 PM CDT THU AUG 28 2014

NOTE: "FAIR" INDICATES FEW OR NO CLOUDS BELOW 12,000 FEET WITH NO
SIGNIFICANT WEATHER AND/OR OBSTRUCTIONS TO VISIBILITY.

* THESE STATIONS ARE NOT UNDER NWS QUALITY CONTROL. THEY ALSO MAY NOT
  REPORT WEATHER SUCH AS PRECIPITATION OR FOG.

ILZ001-002-007-009-015-016-024-290500-
NORTHWEST ILLINOIS

CITY           SKY/WX    TMP DP  RH WIND       PRES   REMARKS
MOLINE         MOCLDY    70  67  90 SE7       29.98R
$$

ILZ003-004-008-010-011-017-018-290500-
NORTH CENTRAL ILLINOIS

CITY           SKY/WX    TMP DP  RH WIND       PRES   REMARKS
ROCKFORD       NOT AVBL
$$

ILZ005-006-012>014-019>023-290500-
NORTHEAST ILLINOIS

CITY           SKY/WX    TMP DP  RH WIND       PRES   REMARKS
CHICAGO-OHARE  CLOUDY    70  62  76 E5        30.04S
CHICAGO-MIDWAY DRIZZLE   72  67  84 SE3       30.05R
AURORA         CLOUDY    69  64  84 E8        30.04R
WAUKEGAN       CLOUDY    68  63  84 E3        30.04S
DUPAGE AIRPORT CLOUDY    68  65  90 E5        30.04R FOG
WHEELING       CLOUDY    71  63  75 CALM      30.06S
NORTHERLY ISL    N/A     71  66  84 SE7         N/A
$$

LMZ740>746-290500-
SOUTHERN LAKE MICHIGAN

STATION/POSITION SKY/WX   TEMP    WIND        PRES    VSBY  WAVE
                          AIR SEA DIR/SP/G                  HT/PER
                          (F)     (DEG/KT/KT) (MB)    (MI)  (FT/S)
SOUTHERN BUOY              69 69  100/ 14/ 16 1017.9F         1/ 3
WAUKEGAN HARBOR            71     110/ 10/ 12   N/A
HARRISON CRIB              71     130/  9/ 11   N/A
BURNHAM HARBOR             71     130/  8       N/A
CALUMET HARBOR             72     110/  5/  7 1016.1F
MICHIGAN CITY              71     110/  4/  5   N/A
MICHIGAN CITY 6N           72 72  140/  8/ 10   N/A           1/ 3
ST. JOSEPH                 71 71  120/ 12/ 14   N/A           1/ 2
$$

ILZ025>027-034>036-040-047-049-050-058-095>099-290500-
WEST-CENTRAL ILLINOIS

CITY           SKY/WX    TMP DP  RH WIND       PRES   REMARKS
$$

ILZ028>032-037-038-041>044-048-051>054-059>061-290500-
CENTRAL ILLINOIS

CITY           SKY/WX    TMP DP  RH WIND       PRES   REMARKS
PEORIA         NOT AVBL
SPRINGFIELD    CLOUDY    71  70  96 E9        30.01F
TAYLORVILLE    NOT AVBL
$$

ILZ033-039-045-046-055>057-062-063-290500-
EAST-CENTRAL ILLINOIS

CITY           SKY/WX    TMP DP  RH WIND       PRES   REMARKS
$$

ILZ079-100>102-290500-
SOUTHWEST ILLINOIS

CITY           SKY/WX    TMP DP  RH WIND       PRES   REMARKS
$$

ILZ064>066-069>071-074>076-080>082-084>086-088>090-092>094-290500-
SOUTH-CENTRAL ILLINOIS

CITY           SKY/WX    TMP DP  RH WIND       PRES   REMARKS
CARBONDALE     CLOUDY    73  71  93 E5        30.00R
$$

ILZ067-068-072-073-078-083-087-091-290500-
SOUTHEAST ILLINOIS

CITY           SKY/WX    TMP DP  RH WIND       PRES   REMARKS
$$

ABBREVIATIONS USED IN REMARKS
   TC - TEMPERATURE IN CELSIUS
  WCI - WIND CHILL INDEX
   HX - HEAT INDEX
  VSB - VISIBILITY
$$



USA.gov is the U.S. government's official web portal to all federal, state and local government web resources and services.